Location: Beacon Field Observatory
(38.7700°N, 77.0829°W)
Time: 06:19:23
(UTC-05:00)

UKube-1 - Pass Details

Date: 14 December 2019
Orbit: 614 x 618 km, 98.5° (Epoch: 18 January)

Event Time Altitude Azimuth Distance (km) Brightness Sun altitude
Rises 17:13:46 0° 20° (NNE) 2,898 ? -5.4°
Reaches altitude 10° 17:16:04 10° 27° (NNE) 1,988 ? -5.8°
Maximum altitude 17:20:11 43° 99° (E) 876 ? -6.5°
Drops below altitude 10° 17:24:16 10° 172° (S) 1,975 ? -7.3°
Sets 17:26:32 0° 179° (S) 2,876 ? -7.7°
